• In Germany
  • List of Countries
  • For 7 days
  • Water Temperature
  • Satellite Maps
  • Weather Map
  • Weather Widgets
  • user-avatar
    Login

    Hourly Weather Grajewo

    Today, 23 October, Monday

    Time Temperature Precipitation Wind Pressure Humidity
    00:00 +4°C° 0.2 mm 4 mps 749 mmHg 86%
    01:00 +4°C° 0.2 mm 3 mps 749 mmHg 87%
    02:00 +4°C° 0.2 mm 3 mps 748 mmHg 87%
    03:00 +4°C° 0.2 mm 3 mps 748 mmHg 87%
    04:00 +4°C° 0.2 mm 3 mps 748 mmHg 88%
    05:00 +4°C° 0.2 mm 3 mps 748 mmHg 88%
    06:00 +4°C° 0.2 mm 3 mps 748 mmHg 88%
    07:00 +4°C° 0.2 mm 3 mps 748 mmHg 88%
    08:00 +4°C° 0.3 mm 3 mps 748 mmHg 87%
    09:00 +4°C° 0.3 mm 3 mps 749 mmHg 86%
    10:00 +4°C° 0.3 mm 3 mps 749 mmHg 85%
    11:00 +5°C° 0.2 mm 3 mps 749 mmHg 83%
    12:00 +5°C° 0.2 mm 4 mps 749 mmHg 81%
    13:00 +6°C° 0.2 mm 4 mps 750 mmHg 79%
    14:00 +5°C° 0.1 mm 4 mps 750 mmHg 79%
    15:00 +5°C° 0.1 mm 4 mps 750 mmHg 80%
    16:00 +5°C° 0.1 mm 3 mps 751 mmHg 80%
    17:00 +5°C° 0.1 mm 3 mps 751 mmHg 80%
    18:00 +4°C° 0.1 mm 4 mps 752 mmHg 80%
    19:00 +4°C° 0.1 mm 4 mps 752 mmHg 80%
    20:00 +3°C° 0 mm 3 mps 753 mmHg 79%
    21:00 +3°C° 0 mm 3 mps 753 mmHg 79%
    22:00 +3°C° 0 mm 3 mps 754 mmHg 78%
    23:00 +2°C° 0 mm 3 mps 754 mmHg 79%

    Tomorrow, 24 October, Tuesday

    Time Temperature Precipitation Wind Pressure Humidity
    00:00 +2°C° 0 mm 3 mps 755 mmHg 80%
    01:00 +1°C° 0 mm 3 mps 755 mmHg 80%
    02:00 +1°C° 0 mm 3 mps 755 mmHg 82%
    03:00 +1°C° 0 mm 3 mps 756 mmHg 84%
    04:00 0°C° 0 mm 3 mps 756 mmHg 86%
    05:00 0°C° 0 mm 3 mps 756 mmHg 86%
    06:00 0°C° 0 mm 3 mps 757 mmHg 87%
    07:00 -1°C° 0 mm 3 mps 758 mmHg 88%
    08:00 +1°C° 0 mm 3 mps 758 mmHg 82%
    09:00 +2°C° 0 mm 3 mps 758 mmHg 76%
    10:00 +4°C° 0 mm 3 mps 758 mmHg 70%
    11:00 +4°C° 0 mm 3 mps 758 mmHg 66%
    12:00 +5°C° 0 mm 3 mps 758 mmHg 62%
    13:00 +7°C° 0 mm 3 mps 758 mmHg 59%
    14:00 +5°C° 0 mm 3 mps 759 mmHg 62%
    15:00 +6°C° 0 mm 2 mps 759 mmHg 66%
    16:00 +5°C° 0 mm 2 mps 759 mmHg 70%
    17:00 +4°C° 0 mm 2 mps 759 mmHg 72%
    18:00 +3°C° 0 mm 2 mps 759 mmHg 74%
    19:00 +2°C° 0 mm 3 mps 759 mmHg 77%
    20:00 +2°C° 0 mm 3 mps 760 mmHg 77%
    21:00 +2°C° 0 mm 3 mps 760 mmHg 77%
    22:00 +2°C° 0 mm 3 mps 760 mmHg 77%
    23:00 +2°C° 0 mm 3 mps 760 mmHg 77%

    Day after tomorrow, 25 October, Wednesday

    Time Temperature Precipitation Wind Pressure Humidity
    00:00 +1°C° 0 mm 3 mps 760 mmHg 77%
    01:00 +1°C° 0 mm 3 mps 760 mmHg 78%
    02:00 +1°C° 0 mm 3 mps 760 mmHg 78%
    03:00 +1°C° 0 mm 3 mps 759 mmHg 79%
    04:00 +1°C° 0 mm 3 mps 759 mmHg 79%
    05:00 +1°C° 0 mm 3 mps 759 mmHg 79%
    06:00 0°C° 0 mm 4 mps 759 mmHg 79%
    07:00 0°C° 0 mm 4 mps 759 mmHg 79%
    08:00 +1°C° 0.1 mm 5 mps 759 mmHg 75%
    09:00 +2°C° 0.1 mm 5 mps 758 mmHg 70%
    10:00 +3°C° 0.1 mm 6 mps 758 mmHg 66%
    11:00 +3°C° 0.5 mm 6 mps 758 mmHg 67%
    12:00 +3°C° 0.5 mm 6 mps 757 mmHg 67%
    13:00 +3°C° 0.5 mm 6 mps 757 mmHg 68%
    14:00 +3°C° 0.5 mm 6 mps 756 mmHg 72%
    15:00 +3°C° 0.5 mm 7 mps 756 mmHg 75%
    16:00 +3°C° 0.5 mm 7 mps 755 mmHg 79%
    17:00 +3°C° 0.2 mm 7 mps 754 mmHg 81%
    18:00 +3°C° 0.2 mm 7 mps 754 mmHg 83%
    19:00 +4°C° 0.2 mm 7 mps 753 mmHg 84%
    20:00 +4°C° 0.9 mm 7 mps 753 mmHg 87%
    21:00 +5°C° 0.9 mm 6 mps 753 mmHg 89%
    22:00 +6°C° 0.9 mm 5 mps 752 mmHg 91%
    23:00 +7°C° 0.1 mm 5 mps 752 mmHg 93%

    26 October, Thursday

    Time Temperature Precipitation Wind Pressure Humidity
    00:00 +7°C° 0.1 mm 4 mps 752 mmHg 95%
    01:00 +8°C° 0.1 mm 3 mps 752 mmHg 96%
    02:00 +8°C° 0 mm 3 mps 752 mmHg 96%
    03:00 +8°C° 0 mm 3 mps 752 mmHg 97%
    04:00 +8°C° 0 mm 3 mps 752 mmHg 97%
    05:00 +8°C° 0 mm 3 mps 752 mmHg 97%
    06:00 +8°C° 0 mm 3 mps 752 mmHg 97%
    07:00 +8°C° 0 mm 3 mps 752 mmHg 97%
    08:00 +8°C° 0 mm 4 mps 752 mmHg 94%
    09:00 +8°C° 0 mm 4 mps 752 mmHg 92%
    10:00 +9°C° 0 mm 5 mps 752 mmHg 89%
    11:00 +9°C° 0.1 mm 5 mps 751 mmHg 87%
    12:00 +10°C° 0.1 mm 5 mps 751 mmHg 86%
    13:00 +10°C° 0.1 mm 5 mps 751 mmHg 84%
    14:00 +10°C° 0.1 mm 5 mps 750 mmHg 85%
    15:00 +11°C° 0.1 mm 4 mps 750 mmHg 85%
    16:00 +10°C° 0.1 mm 4 mps 750 mmHg 86%
    17:00 +10°C° 0.1 mm 4 mps 749 mmHg 88%
    18:00 +8°C° 0.1 mm 4 mps 749 mmHg 90%
    19:00 +8°C° 0.1 mm 4 mps 749 mmHg 92%
    20:00 +8°C° 0 mm 4 mps 749 mmHg 92%
    21:00 +8°C° 0 mm 4 mps 748 mmHg 92%
    22:00 +8°C° 0 mm 4 mps 748 mmHg 93%
    23:00 +8°C° 0 mm 4 mps 748 mmHg 93%

    27 October, Friday

    Time Temperature Precipitation Wind Pressure Humidity
    00:00 +7°C° 0 mm 4 mps 748 mmHg 93%
    01:00 +7°C° 0 mm 4 mps 747 mmHg 94%
    02:00 +7°C° 0 mm 4 mps 747 mmHg 94%
    03:00 +8°C° 0 mm 3 mps 746 mmHg 94%
    04:00 +8°C° 0 mm 3 mps 746 mmHg 95%
    05:00 +8°C° 0 mm 3 mps 745 mmHg 94%
    06:00 +7°C° 0 mm 4 mps 745 mmHg 94%
    07:00 +7°C° 0 mm 4 mps 744 mmHg 93%
    08:00 +8°C° 0.2 mm 4 mps 744 mmHg 89%
    09:00 +9°C° 0.2 mm 5 mps 743 mmHg 85%
    10:00 +9°C° 0.2 mm 6 mps 743 mmHg 81%
    11:00 +9°C° 0.4 mm 6 mps 742 mmHg 79%
    12:00 +9°C° 0.4 mm 6 mps 742 mmHg 77%
    13:00 +10°C° 0.4 mm 6 mps 741 mmHg 75%
    14:00 +9°C° 0.3 mm 5 mps 741 mmHg 78%
    15:00 +9°C° 0.3 mm 5 mps 740 mmHg 80%
    16:00 +8°C° 0.3 mm 4 mps 740 mmHg 83%
    17:00 +8°C° 0.1 mm 4 mps 740 mmHg 85%
    18:00 +7°C° 0.1 mm 4 mps 739 mmHg 87%
    19:00 +7°C° 0.1 mm 4 mps 739 mmHg 90%
    20:00 +7°C° 0.1 mm 4 mps 739 mmHg 90%
    21:00 +7°C° 0.1 mm 4 mps 739 mmHg 91%
    22:00 +7°C° 0.1 mm 4 mps 738 mmHg 92%
    23:00 +7°C° 0.1 mm 5 mps 738 mmHg 90%

    28 October, Saturday

    Time Temperature Precipitation Wind Pressure Humidity
    00:00 +7°C° 0.1 mm 5 mps 738 mmHg 89%
    01:00 +7°C° 0.1 mm 5 mps 738 mmHg 87%
    02:00 +7°C° 0 mm 5 mps 738 mmHg 89%
    03:00 +6°C° 0 mm 4 mps 738 mmHg 91%
    04:00 +5°C° 0 mm 4 mps 737 mmHg 93%
    05:00 +5°C° 0 mm 3 mps 737 mmHg 93%
    06:00 +5°C° 0 mm 3 mps 737 mmHg 94%
    07:00 +5°C° 0 mm 3 mps 737 mmHg 94%
    08:00 +7°C° 0.1 mm 3 mps 737 mmHg 89%
    09:00 +6°C° 0.1 mm 4 mps 737 mmHg 85%
    10:00 +7°C° 0.1 mm 4 mps 737 mmHg 80%
    11:00 +7°C° 0.2 mm 4 mps 737 mmHg 80%
    12:00 +7°C° 0.2 mm 4 mps 737 mmHg 80%
    13:00 +7°C° 0.2 mm 4 mps 737 mmHg 80%
    14:00 +7°C° 0.1 mm 4 mps 737 mmHg 82%
    15:00 +8°C° 0.1 mm 3 mps 737 mmHg 84%
    16:00 +8°C° 0.1 mm 2 mps 737 mmHg 86%
    17:00 +7°C° 0.1 mm 2 mps 738 mmHg 88%
    18:00 +7°C° 0.1 mm 2 mps 738 mmHg 90%
    19:00 +6°C° 0.1 mm 2 mps 739 mmHg 92%
    20:00 +6°C° 0 mm 2 mps 739 mmHg 93%
    21:00 +6°C° 0 mm 2 mps 740 mmHg 93%
    22:00 +6°C° 0 mm 2 mps 740 mmHg 94%
    23:00 +6°C° 0 mm 2 mps 740 mmHg 94%

    29 October, Sunday

    Time Temperature Precipitation Wind Pressure Humidity
    00:00 +5°C° 0 mm 2 mps 741 mmHg 95%
    01:00 +5°C° 0 mm 2 mps 741 mmHg 95%
    02:00 +5°C° 0 mm 2 mps 742 mmHg 95%
    03:00 +5°C° 0 mm 2 mps 742 mmHg 95%
    04:00 +5°C° 0 mm 2 mps 742 mmHg 94%
    05:00 +5°C° 0 mm 2 mps 743 mmHg 94%
    06:00 +5°C° 0 mm 2 mps 743 mmHg 94%
    07:00 +5°C° 0 mm 2 mps 743 mmHg 94%
    08:00 +5°C° 0 mm 3 mps 744 mmHg 90%
    09:00 +7°C° 0 mm 3 mps 744 mmHg 85%
    10:00 +8°C° 0 mm 3 mps 744 mmHg 81%
    11:00 +7°C° 0 mm 4 mps 743 mmHg 79%
    12:00 +8°C° 0 mm 4 mps 743 mmHg 76%
    13:00 +8°C° 0 mm 5 mps 743 mmHg 74%
    14:00 +8°C° 0 mm 5 mps 742 mmHg 76%
    15:00 +7°C° 0 mm 5 mps 742 mmHg 78%
    16:00 +7°C° 0 mm 5 mps 741 mmHg 80%
    17:00 +7°C° 0.1 mm 5 mps 741 mmHg 81%
    18:00 +7°C° 0.1 mm 6 mps 740 mmHg 82%
    19:00 +5°C° 0.1 mm 6 mps 740 mmHg 83%
    20:00 +7°C° 0.2 mm 6 mps 739 mmHg 84%
    21:00 +7°C° 0.2 mm 6 mps 738 mmHg 85%
    22:00 +7°C° 0.2 mm 6 mps 738 mmHg 86%
    23:00 +6°C° 0.1 mm 7 mps 737 mmHg 85%
    Show more